Regional Weather Roundup
Issued by NWS Sioux Falls, SD

Home | Current Version | Previous Version | Text Only | Print | Product List | Glossary On
Versions: 1 2 3 4 5 6 7 8 9 10 11 12 13 14 15 16 17 18 19 20 21 22 23 24 25 26 27 28 29 30 31 32 33 34 35 36 37 38 39 40 41 42 43 44 45 46 47 48 49 50
000
ASUS43 KFSD 292310
RWRFSD

WEATHER ROUNDUP FOR SE SOUTH DAKOTA/SW MINNESOTA/NW IOWA
NATIONAL WEATHER SERVICE SIOUX FALLS SD
600 PM CDT TUE JUL 29 2014

NOTE: "FAIR" INDICATES FEW OR NO CLOUDS BELOW 12,000 FEET WITH NO
SIGNIFICANT WEATHER AND OR OBSTRUCTIONS TO VISIBILITY.


SDZ038>040-050-052>070-300000-
SOUTHEAST SOUTH DAKOTA

CITY           SKY/WX    TMP DP  RH WIND       PRES   REMARKS
CHAMBERLAIN    MOSUNNY   78  51  37 CALM      30.14F
HURON          SUNNY     78  52  40 N7        30.13F
MADISON        FAIR      72  52  49 N7        30.16F
MITCHELL       PTSUNNY   77  54  44 N8        30.14F
SIOUX FALLS    MOSUNNY   75  53  46 N7        30.14F
WINNER         FAIR      82  47  29 NE7       30.16F
YANKTON          N/A    N/A N/A N/A MISG        N/A
$$

MNZ071-072-080-081-089-090-097-098-300000-
SOUTHWEST MINNESOTA

CITY           SKY/WX    TMP DP  RH WIND       PRES   REMARKS
FAIRMONT       SUNNY     75  45  33 NW10      30.10F
JACKSON        MOSUNNY   73  52  46 NW9       30.13F
LUVERNE        MOSUNNY   77  48  36 NW7       30.14F
MARSHALL       SUNNY     73  52  46 N7        30.11F
MONTEVIDEO     SUNNY     77  55  47 N8        30.11F
PIPESTONE      MOSUNNY   73  52  46 NW9       30.14F
REDWOOD FALLS  SUNNY     77  52  41 NW12      30.09F
TRACY          SUNNY     75  53  45 N6        30.12F
WINDOM         SUNNY     75  54  46 NW9       30.12F
WORTHINGTON    PTSUNNY   73  54  49 NW9       30.14F
$$

IAZ001>003-012>014-020>022-031-032-NEZ013-014-SDZ071-300000-
NORTHWEST IOWA

CITY           SKY/WX    TMP DP  RH WIND       PRES   REMARKS
CHEROKEE       SUNNY     74  54  48 NW6       30.13F
DENISON        SUNNY     73  55  53 N6        30.12F
ESTHERVILLE    MOSUNNY   74  54  49 NW9       30.11F
LE MARS        SUNNY     75  55  50 NW7       30.14F
ORANGE CITY    MOSUNNY   73  54  49 W5        30.14F
SHELDON        MOSUNNY   73  54  49 NW7G13    30.13F
SIOUX CITY     CLOUDY    75  53  46 N7        30.13F
SPENCER        SUNNY     75  54  47 NW8       30.12F
STORM LAKE     SUNNY     73  55  53 N5        30.14F
$$

ABBREVIATIONS USED IN REMARKS
   TC - TEMPERATURE IN CELSIUS
  WCI - WIND CHILL INDEX
   HX - HEAT INDEX
  VSB - VISIBILITY



USA.gov is the U.S. government's official web portal to all federal, state and local government web resources and services.